Zurück zum Katalog

STARLINK-35435

AktivKommunikationVLEO
NORAD 66464·PAYLOAD·🇺🇸 United States

Gestartet Nov 15, 2025 von Cape Canaveral Space Force Station

Loading…

Nächste Überflüge (nächste 24 Stunden)

TLE

AktuellSource: CelesTrak SupGP

Epoche: Sep 15, 2026, 03:02 UTC

1 66464C 25262J   26258.12687500  .00036109  00000+0  13073-2 0  2587
2 66464  43.0031 305.9240 0001872 272.8142  67.5098 15.27573453    14

Verfolge STARLINK-35435 in Echtzeit mit AllMySat

Download on the App Store